Iowa City, IA

7:39 AM CST on December 09, 2019 (GMT -0600)
Iowa City Municipal

Weather History for KIOW - October, 2019

Change the Weather History Date:

Saturday, October 26, 2019

  Actual Average Record
Temperature  
Mean Temperature 39 °F 48 °F  
Max Temperature 50 °F 58 °F 82 °F (1955)
Min Temperature 28 °F 38 °F 17 °F (1962)
Degree Days  
Heating Degree Days 26 17  
Month to date heating degree days 352 324  
Since 1 July heating degree days 359 436  
Cooling Degree Days 0 0  
Month to date cooling degree days 18 10  
Year to date cooling degree days 1175 912  
Moisture  
Dew Point 33 °F    
Average Humidity 73    
Maximum Humidity 85    
Minimum Humidity 61    
Precipitation  
Precipitation 0.00 in 0.10 in 1.25 in (1986)
Month to date precipitation 1.91 2.40  
Year to date precipitation 38.88 31.94  
Sea Level Pressure  
Sea Level Pressure 29.92 in    
Wind  
Wind Speed 4 mph (NNE)    
Max Wind Speed 13 mph    
Max Gust Speed 16 mph    
Visibility 10 miles    
Events      
T = Trace of Precipitation, MM = Missing Value Source: NWS Daily Summary

Daily Weather History Graph

Daily Weather History Graph

Search for Another Location

Airport or City:

Astronomy

Oct. 26, 2019 Rise Set
Actual Time 7:30 AM CDT 6:08 PM CDT
Civil Twilight 7:02 AM CDT 6:37 PM CDT
Nautical Twilight 6:29 AM CDT 7:09 PM CDT
Astronomical Twilight 5:57 AM CDT 7:42 PM CDT
Moon 5:24 AM CDT (10/26) 5:46 PM CDT (10/26)
Length of Visible Light 11h 35m
Length of Day
10h 38m
Waning Crescent, 3% of the Moon is Illuminated
Oct 26
Waning Crescent
Oct 27
New
Nov 4
First Quarter
Nov 12
Full
Nov 19
Last Quarter

Hourly Weather History & Observations

Time (CDT) Temp. Windchill Dew Point Humidity Pressure Visibility Wind Dir Wind Speed Gust Speed Precip Events Conditions
12:52 AM 30.9 °F - 26.1 °F 82% 30.19 in 10.0 mi Calm Calm - N/A   Clear
1:52 AM 32.0 °F - 27.0 °F 82% 30.17 in 10.0 mi Calm Calm - N/A   Clear
2:52 AM 30.9 °F - 26.1 °F 82% 30.16 in 10.0 mi Calm Calm - N/A   Clear
3:52 AM 30.0 °F - 26.1 °F 85% 30.14 in 10.0 mi Calm Calm - N/A   Clear
4:52 AM 30.9 °F - 27.0 °F 85% 30.11 in 10.0 mi Calm Calm - N/A   Clear
5:52 AM 30.9 °F 27.5 °F 27.0 °F 85% 30.08 in 10.0 mi East 3.5 mph - N/A   Clear
6:52 AM 30.0 °F - 26.1 °F 85% 30.08 in 10.0 mi Calm Calm - N/A   Clear
7:52 AM 28.9 °F - 25.0 °F 85% 30.05 in 10.0 mi Calm Calm - N/A   Clear
8:52 AM 35.1 °F - 28.9 °F 78% 30.04 in 10.0 mi Calm Calm - N/A   Clear
9:52 AM 39.9 °F 36.7 °F 30.9 °F 70% 30.00 in 10.0 mi East 4.6 mph - N/A   Clear
10:52 AM 45.0 °F 40.6 °F 36.0 °F 71% 29.97 in 10.0 mi ENE 8.1 mph - N/A   Clear
11:52 AM 46.9 °F - 37.9 °F 71% 29.95 in 10.0 mi ENE 5.8 mph - N/A   Clear
12:52 PM 48.9 °F - 37.9 °F 66% 29.89 in 10.0 mi East 8.1 mph - N/A   Clear
1:52 PM 50.0 °F - 39.0 °F 66% 29.84 in 10.0 mi ENE 9.2 mph - N/A   Clear
2:52 PM 50.0 °F - 37.9 °F 63% 29.83 in 10.0 mi NNE 6.9 mph - N/A   Clear
3:52 PM 50.0 °F - 39.0 °F 66% 29.79 in 10.0 mi NE 8.1 mph - N/A   Clear
4:52 PM 48.9 °F - 37.9 °F 66% 29.78 in 10.0 mi NNE 6.9 mph - N/A   Scattered Clouds
5:52 PM 48.9 °F - 37.9 °F 66% 29.76 in 10.0 mi NNE 9.2 mph - N/A   Mostly Cloudy
6:52 PM 48.0 °F - 37.9 °F 68% 29.73 in 10.0 mi NNW 6.9 mph - N/A   Clear
7:52 PM 48.0 °F - 37.9 °F 68% 29.71 in 10.0 mi North 9.2 mph - N/A   Clear
8:52 PM 45.0 °F 42.6 °F 37.9 °F 76% 29.73 in 10.0 mi NW 4.6 mph - N/A   Clear
9:52 PM 45.0 °F 42.6 °F 37.0 °F 74% 29.71 in 10.0 mi NNW 4.6 mph - N/A   Clear
10:52 PM 41.0 °F 39.0 °F 36.0 °F 82% 29.72 in 9.0 mi West 3.5 mph - N/A   Clear
11:52 PM 39.0 °F 35.7 °F 35.1 °F 86% 29.75 in 7.0 mi West 4.6 mph - N/A   Clear